Location: Karcze
(52.0945°N, 22.4786°E)
Time: 18:26:20
(UTC+00:00)

SHAONIAN XING - Pass Details

Date: 07 December 2021
Orbit: 466 x 487 km, 97.5° (Epoch: 27 January)

Event Time Altitude Azimuth Distance (km) Brightness Sun altitude
Rises 15:12:38 0° 356° (N) 2,564 ? -7.8°
Reaches altitude 10° 15:16:16 10° 317° (NW) 1,683 ? -8.3°
Maximum altitude 15:17:05 11° 304° (NW) 1,644 ? -8.4°
Drops below altitude 10° 15:17:53 10° 291° (WNW) 1,682 ? -8.5°
Sets 15:21:32 0° 252° (WSW) 2,563 ? -9.0°
